This is the latest recevied weather packets stored in our database for station/object JH7UAX-10. If no packets are shown the sender has not sent any weather packets the latest 10 day(s).
| Time | Temp. | Humidity | Pressure | Rain* | Wind** | Luminosity | Snow |
|---|---|---|---|---|---|---|---|
| 1778147106 | 18.33° C | 69% | 1021.4 hPa | 0 mm | - | - | - |
| 1778146679 | 18.33° C | 69% | 1021.3 hPa | 0 mm | - | - | - |
| 1778145779 | 18.89° C | 67% | 1021.5 hPa | 0 mm | - | - | - |
| 1778145304 | 19.44° C | 66% | 1021.6 hPa | 0 mm | - | - | - |
| 1778144878 | 19.44° C | 66% | 1021.6 hPa | 0 mm | - | - | - |
| 1778143978 | 20° C | 64% | 1021.7 hPa | 0 mm | - | - | - |
| 1778143506 | 20.56° C | 64% | 1021.7 hPa | 0 mm | - | - | - |
| 1778143079 | 20.56° C | 62% | 1021.7 hPa | 0 mm | - | - | - |
| 1778142179 | 20.56° C | 61% | 1021.7 hPa | 0 mm | - | - | - |
| 1778141704 | 20.56° C | 60% | 1021.7 hPa | 0 mm | - | - | - |
| 1778141278 | 21.11° C | 61% | 1021.7 hPa | 0 mm | - | - | - |
| 1778140378 | 21.11° C | 60% | 1021.7 hPa | 0 mm | - | - | - |
| 1778139906 | 21.67° C | 59% | 1021.7 hPa | 0 mm | - | - | - |
| 1778139478 | 21.67° C | 59% | 1021.8 hPa | 0 mm | - | - | - |
| 1778139006 | 21.67° C | 59% | 1021.7 hPa | 0 mm | - | - | - |
| 1778138578 | 21.67° C | 58% | 1021.6 hPa | 0 mm | - | - | - |
| 1778138106 | 21.67° C | 57% | 1021.7 hPa | 0 mm | - | - | - |
| 1778137677 | 22.22° C | 57% | 1021.7 hPa | 0 mm | - | - | - |
| 1778137205 | 22.22° C | 55% | 1021.6 hPa | 0 mm | - | - | - |
| 1778136779 | 22.22° C | 53% | 1021.6 hPa | 0 mm | - | - | - |
| 1778135879 | 22.22° C | 53% | 1021.7 hPa | 0 mm | - | - | - |
| 1778135405 | 22.78° C | 50% | 1021.6 hPa | 0 mm | - | - | - |
| 1778134979 | 23.33° C | 50% | 1021.6 hPa | 0 mm | - | - | - |
| 1778134504 | 23.33° C | 51% | 1021.7 hPa | 0 mm | - | - | - |
| 1778134078 | 22.78° C | 49% | 1021.6 hPa | 0 mm | - | - | - |
* Rain latest hour (hover to see other rain measurements)
** Current wind speed in m/s (hover to see current wind gust speed)